When you browse on this site, cookies collect data to enhance your experience and personalize the content and advertising you see.
Visit our Privacy Policy to learn more. By continuing to use the site, you agree to this use of cookies and data.
  • In Latvia
  • List of Countries
  • For 7 days
  • Water Temperature
  • Weather Map
  • Weather Widgets
  • user-avatar
    Login

    Hourly Weather Broniew

    Today, 25 February, Tuesday

    Time Temperature Precipitation Wind Pressure Humidity
    00:00 0°C° 0.3 mm 4 mps 739 mmHg 86%
    01:00 +1°C° 0 mm 3 mps 738 mmHg 88%
    02:00 0°C° 1.2 mm 4 mps 737 mmHg 91%
    03:00 0°C° 1.2 mm 5 mps 736 mmHg 93%
    04:00 0°C° 1.2 mm 5 mps 735 mmHg 95%
    05:00 +1°C° 0.4 mm 5 mps 735 mmHg 94%
    06:00 +2°C° 0.4 mm 5 mps 734 mmHg 93%
    07:00 +3°C° 0 mm 5 mps 734 mmHg 92%
    08:00 +3°C° 0.2 mm 5 mps 734 mmHg 91%
    09:00 +4°C° 0.2 mm 6 mps 733 mmHg 90%
    10:00 +5°C° 0.2 mm 6 mps 733 mmHg 89%
    11:00 +7°C° 0 mm 6 mps 733 mmHg 85%
    12:00 +8°C° 0 mm 6 mps 733 mmHg 82%
    13:00 +8°C° 0 mm 6 mps 732 mmHg 78%
    14:00 +8°C° 0.1 mm 6 mps 732 mmHg 80%
    15:00 +8°C° 0.1 mm 6 mps 731 mmHg 82%
    16:00 +8°C° 0.1 mm 6 mps 731 mmHg 83%
    17:00 +7°C° 0.1 mm 6 mps 731 mmHg 85%
    18:00 +7°C° 0.1 mm 6 mps 731 mmHg 86%
    19:00 +7°C° 0.1 mm 5 mps 730 mmHg 88%
    20:00 +7°C° 0.7 mm 5 mps 730 mmHg 88%
    21:00 +7°C° 0.7 mm 5 mps 730 mmHg 89%
    22:00 +7°C° 0.7 mm 5 mps 729 mmHg 90%
    23:00 +6°C° 0.3 mm 4 mps 729 mmHg 87%

    Tomorrow, 26 February, Wednesday

    Time Temperature Precipitation Wind Pressure Humidity
    00:00 +6°C° 0.3 mm 4 mps 729 mmHg 84%
    01:00 +5°C° 0.3 mm 3 mps 729 mmHg 81%
    02:00 +4°C° 0 mm 3 mps 729 mmHg 83%
    03:00 +4°C° 0 mm 3 mps 729 mmHg 85%
    04:00 +3°C° 0 mm 3 mps 728 mmHg 86%
    05:00 +3°C° 0 mm 3 mps 728 mmHg 86%
    06:00 +3°C° 0 mm 3 mps 728 mmHg 86%
    07:00 +3°C° 0 mm 3 mps 727 mmHg 86%
    08:00 +3°C° 0 mm 4 mps 727 mmHg 81%
    09:00 +3°C° 0 mm 5 mps 727 mmHg 77%
    10:00 +4°C° 0 mm 6 mps 727 mmHg 73%
    11:00 +4°C° 0 mm 6 mps 727 mmHg 69%
    12:00 +4°C° 0 mm 6 mps 727 mmHg 65%
    13:00 +5°C° 0 mm 6 mps 727 mmHg 61%
    14:00 +5°C° 0 mm 5 mps 727 mmHg 61%
    15:00 +5°C° 0 mm 5 mps 727 mmHg 62%
    16:00 +5°C° 0 mm 4 mps 727 mmHg 62%
    17:00 +4°C° 0 mm 4 mps 727 mmHg 69%
    18:00 +3°C° 0 mm 4 mps 728 mmHg 75%
    19:00 +1°C° 0 mm 4 mps 728 mmHg 82%
    20:00 +1°C° 0 mm 4 mps 728 mmHg 81%
    21:00 +1°C° 0 mm 4 mps 729 mmHg 80%
    22:00 0°C° 0 mm 4 mps 729 mmHg 79%
    23:00 0°C° 0 mm 4 mps 729 mmHg 81%

    Day after tomorrow, 27 February, Thursday

    Time Temperature Precipitation Wind Pressure Humidity
    00:00 -1°C° 0 mm 4 mps 730 mmHg 84%
    01:00 -1°C° 0 mm 5 mps 730 mmHg 87%
    02:00 -1°C° 0.1 mm 5 mps 730 mmHg 85%
    03:00 -1°C° 0.1 mm 5 mps 730 mmHg 84%
    04:00 -1°C° 0.1 mm 5 mps 730 mmHg 83%
    05:00 -2°C° 0.1 mm 6 mps 731 mmHg 83%
    06:00 -3°C° 0.1 mm 6 mps 731 mmHg 83%
    07:00 -3°C° 0.1 mm 7 mps 732 mmHg 83%
    08:00 -3°C° 0 mm 7 mps 732 mmHg 80%
    09:00 -2°C° 0 mm 8 mps 733 mmHg 78%
    10:00 -2°C° 0 mm 8 mps 733 mmHg 75%
    11:00 -2°C° 0 mm 8 mps 733 mmHg 71%
    12:00 -1°C° 0 mm 7 mps 734 mmHg 66%
    13:00 -1°C° 0 mm 7 mps 734 mmHg 62%
    14:00 -1°C° 0 mm 7 mps 734 mmHg 65%
    15:00 -1°C° 0 mm 6 mps 733 mmHg 68%
    16:00 -1°C° 0 mm 6 mps 733 mmHg 70%
    17:00 0°C° 0 mm 5 mps 733 mmHg 74%
    18:00 -1°C° 0 mm 4 mps 733 mmHg 78%
    19:00 -1°C° 0 mm 3 mps 733 mmHg 82%
    20:00 -1°C° 0 mm 3 mps 732 mmHg 82%
    21:00 -1°C° 0 mm 3 mps 732 mmHg 82%
    22:00 -1°C° 0 mm 3 mps 731 mmHg 82%
    23:00 -1°C° 0 mm 3 mps 731 mmHg 81%

    28 February, Friday

    Time Temperature Precipitation Wind Pressure Humidity
    00:00 -1°C° 0 mm 3 mps 730 mmHg 80%
    01:00 -1°C° 0 mm 3 mps 729 mmHg 79%
    02:00 0°C° 0 mm 3 mps 729 mmHg 78%
    03:00 0°C° 0 mm 3 mps 728 mmHg 76%
    04:00 -1°C° 0 mm 4 mps 728 mmHg 74%
    05:00 -1°C° 0 mm 4 mps 728 mmHg 75%
    06:00 -1°C° 0 mm 3 mps 728 mmHg 76%
    07:00 -1°C° 0 mm 3 mps 729 mmHg 77%
    08:00 -1°C° 0 mm 4 mps 729 mmHg 76%
    09:00 -1°C° 0 mm 4 mps 730 mmHg 75%
    10:00 0°C° 0 mm 4 mps 731 mmHg 74%
    11:00 0°C° 0 mm 5 mps 732 mmHg 73%
    12:00 +1°C° 0 mm 6 mps 733 mmHg 71%
    13:00 +2°C° 0 mm 7 mps 734 mmHg 69%
    14:00 +1°C° 0.1 mm 6 mps 735 mmHg 75%
    15:00 -1°C° 0.1 mm 6 mps 736 mmHg 80%
    16:00 -1°C° 0.1 mm 6 mps 737 mmHg 85%
    17:00 0°C° 0 mm 5 mps 737 mmHg 85%
    18:00 -1°C° 0 mm 5 mps 738 mmHg 84%
    19:00 -1°C° 0 mm 4 mps 739 mmHg 84%
    20:00 -1°C° 0 mm 4 mps 739 mmHg 85%
    21:00 -1°C° 0 mm 4 mps 739 mmHg 86%
    22:00 -1°C° 0 mm 4 mps 740 mmHg 86%
    23:00 -2°C° 0 mm 4 mps 740 mmHg 89%

    29 February, Saturday

    Time Temperature Precipitation Wind Pressure Humidity
    00:00 -2°C° 0 mm 5 mps 740 mmHg 92%
    01:00 -2°C° 0 mm 5 mps 740 mmHg 95%
    02:00 -2°C° 0.4 mm 5 mps 740 mmHg 95%
    03:00 -2°C° 0.4 mm 5 mps 740 mmHg 95%
    04:00 -3°C° 0.4 mm 6 mps 740 mmHg 95%
    05:00 -2°C° 0.2 mm 5 mps 741 mmHg 93%
    06:00 -2°C° 0.2 mm 4 mps 741 mmHg 92%
    07:00 -2°C° 0.2 mm 4 mps 742 mmHg 90%
    08:00 -1°C° 0 mm 3 mps 742 mmHg 84%
    09:00 0°C° 0 mm 3 mps 743 mmHg 78%
    10:00 0°C° 0 mm 3 mps 743 mmHg 73%
    11:00 +2°C° 0 mm 2 mps 743 mmHg 69%
    12:00 +2°C° 0 mm 2 mps 743 mmHg 66%
    13:00 +2°C° 0 mm 2 mps 743 mmHg 63%
    14:00 +2°C° 0 mm 2 mps 742 mmHg 63%
    15:00 +2°C° 0 mm 2 mps 742 mmHg 64%
    16:00 +1°C° 0 mm 3 mps 742 mmHg 64%
    17:00 0°C° 0 mm 3 mps 742 mmHg 69%
    18:00 +1°C° 0 mm 2 mps 742 mmHg 73%
    19:00 -1°C° 0 mm 2 mps 741 mmHg 78%
    20:00 -1°C° 0 mm 3 mps 741 mmHg 77%
    21:00 -2°C° 0 mm 4 mps 740 mmHg 76%
    22:00 -2°C° 0 mm 5 mps 740 mmHg 75%
    23:00 -3°C° 0 mm 6 mps 740 mmHg 75%

    1 March, Sunday

    Time Temperature Precipitation Wind Pressure Humidity
    00:00 -2°C° 0 mm 6 mps 739 mmHg 76%
    01:00 -2°C° 0 mm 6 mps 739 mmHg 76%
    02:00 -2°C° 0 mm 6 mps 738 mmHg 76%
    03:00 -1°C° 0 mm 5 mps 738 mmHg 77%
    04:00 -1°C° 0 mm 5 mps 737 mmHg 77%
    05:00 0°C° 0.4 mm 5 mps 737 mmHg 83%
    06:00 -1°C° 0.4 mm 6 mps 737 mmHg 88%
    07:00 -1°C° 0.4 mm 6 mps 737 mmHg 94%
    08:00 +1°C° 0.2 mm 6 mps 737 mmHg 89%
    09:00 +2°C° 0.2 mm 6 mps 738 mmHg 84%
    10:00 +3°C° 0.2 mm 6 mps 738 mmHg 80%
    11:00 +4°C° 0 mm 6 mps 738 mmHg 75%
    12:00 +5°C° 0 mm 5 mps 738 mmHg 70%
    13:00 +5°C° 0 mm 5 mps 738 mmHg 66%
    14:00 +5°C° 0 mm 5 mps 738 mmHg 65%
    15:00 +5°C° 0 mm 4 mps 738 mmHg 65%
    16:00 +5°C° 0 mm 3 mps 738 mmHg 65%
    17:00 +4°C° 0 mm 3 mps 738 mmHg 69%
    18:00 +3°C° 0 mm 3 mps 738 mmHg 72%
    19:00 +3°C° 0 mm 2 mps 738 mmHg 76%
    20:00 +3°C° 0 mm 2 mps 739 mmHg 78%
    21:00 +2°C° 0 mm 2 mps 739 mmHg 80%
    22:00 +2°C° 0 mm 2 mps 739 mmHg 82%
    23:00 +2°C° 0 mm 2 mps 739 mmHg 83%
    Show more